CAPE
1679 1940 2186 2160 2152 1688 1445 1242 1351 1464 1949 2120 2201 2346 2356 2267 2184 2087 2124 2096 2125 2305 2567 2549 2438 2174 1671 1304 1059 1006 855 683
483 543 909 1318 1799 2455 2314 1562 1564 1572 1584 1485 1920 2158 2286 2291 2245 2153 2056 1989 2047 2171 2291 2364 2472 2412 2356 2125 1961 1848 1588 1164
0 8 83 259 795 1033 2026 1983 2213 1935 1745 1612 1601 1441 1593 1989 2230 2280 2232 2153 2065 1909 1941 2067 2119 2166 2422 2460 2389 2226 2041 1587
0 0 0 0 0 34 733 1259 1770 1746 1691 2365 1880 1627 1500 1409 1483 1619 1766 1929 2057 2109 2082 1972 1920 1840 1813 1797 1716 1811 1865 1831
0 0 0 0 0 0 0 341 1073 1214 1143 1865 2192 1934 2167 1905 1808 1802 1898 1884 1794 1959 2220 1727 1639 1632 1633 1408 1639 1630 1581 1575
0 0 0 0 0 0 0 0 14 569 989 1175 1721 2198 2371 2068 1415 1546 1449 1633 1507 1564 1379 1240 1152 1069 1134 1214 1317 1728 1694 1446
0 0 0 0 0 0 0 0 0 0 112 904 1160 1263 1420 1441 1224 1150 960 824 982 846 801 835 838 874 846 748 925 1328 1565 1570
0 0 0 0 0 0 0 0 0 0 0 0 480 707 644 1491 1144 888 874 742 638 439 204 238 182 114 159 334 456 477 645 1059
0 0 0 0 0 0 0 0 0 0 0 0 0 0 9 184 653 255 432 516 569 227 294 485 227 63 10 0 0 19 108 376
0 0 0 0 0 0 0 0 0 0 0 0 0 0 0 0 0 0 2 111 52 54 31 12 0 0 46 17 0 0 0 7
0 0 0 0 0 0 0 0 0 0 0 0 0 0 0 0 0 0 0 0 0 0 0 0 0 0 0 0 0 0 0 0
0 0 0 0 0 0 0 0 0 0 0 0 0 0 0 0 0 0 0 0 0 0 0 0 0 0 0 0 0 0 16 2
0 0 0 0 0 0 0 0 0 0 0 0 0 0 0 0 0 0 0 0 0 0 0 0 0 0 0 0 0 0 0 24
0 0 0 0 0 0 0 0 0 0 0 0 0 0 0 0 0 0 0 0 0 0 0 0 0 0 0 0 0 0 0 4
0 0 0 0 0 0 0 0 0 0 0 0 0 0 0 0 0 0 0 0 0 0 0 0 0 0 0 0 0 0 0 0
0 0 0 0 0 0 0 0 0 0 0 0 0 0 0 0 0 0 0 0 0 0 0 0 0 0 0 0 0 0 0 0
0 0 0 0 0 0 0 0 0 0 0 0 0 0 0 0 0 0 0 0 0 0 0 0 0 0 0 0 0 0 0 0
0 0 0 0 0 0 0 0 0 0 0 0 0 0 0 0 0 0 0 0 0 0 0 0 0 0 0 0 0 0 0 0
0 0 0 0 0 0 0 0 0 0 0 0 0 0 0 0 0 0 0 0 0 0 0 0 0 0 0 0 0 0 0 0
0 0 0 0 0 0 0 0 0 0 0 0 0 0 0 0 0 0 0 0 0 0 0 0 0 0 0 0 0 0 0 0
CIN
-80 -54 -37 -40 -44 -125 -163 -197 -186 -177 -101 -71 -62 -77 -82 -76 -70 -68 -65 -62 -56 -44 -21 -20 -20 -30 -47 -58 -68 -61 -75 -95
-183 -179 -141 -104 -50 -16 -30 -79 -124 -131 -131 -148 -90 -47 -29 -37 -41 -52 -55 -50 -36 -21 -14 -10 -7 -12 -10 -15 -27 -35 -49 -89
-0 -160 -123 -159 -116 -107 -34 -36 -15 -53 -79 -102 -112 -147 -113 -40 -10 -11 -13 -13 -14 -22 -18 -14 -17 -24 -2 -2 -1 -0 -15 -44
-0 -0 -0 -0 -0 -107 -126 -76 -42 -46 -50 -15 -48 -69 -89 -105 -88 -65 -42 -17 -5 -0 -0 -3 -3 -9 -15 -21 -14 -21 -22 -30
-0 -0 -0 -0 -0 -0 -0 -175 -74 -75 -83 -22 -1 -15 -7 -24 -33 -28 -4 -10 -13 -3 -0 -11 -18 -16 -27 -23 -38 -37 -30 -30
-0 -0 -0 -0 -0 -0 -0 -0 -299 -115 -60 -50 -10 -0 -0 -0 -19 -15 -20 -2 -0 -7 -24 -33 -33 -44 -54 -53 -44 -21 -15 -34
-0 -0 -0 -0 -0 -0 -0 -0 -0 -0 -181 -34 -15 -9 -1 -0 -1 -4 -9 -24 -13 -12 -23 -27 -26 -26 -38 -53 -65 -28 -16 -14
-0 -0 -0 -0 -0 -0 -0 -0 -0 -0 -0 -0 -63 -9 -6 -0 -0 -3 -2 -4 -16 -46 -94 -95 -103 -135 -113 -63 -56 -64 -73 -37
-0 -0 -0 -0 -0 -0 -0 -0 -0 -0 -0 -0 -0 -0 -13 -81 -6 -87 -54 -29 -16 -74 -53 -21 -80 -156 -203 -0 -0 -126 -170 -95
-0 -0 -0 -0 -0 -0 -0 -0 -0 -0 -0 -0 -0 -0 -0 -0 -0 -0 -18 -113 -201 -187 -233 -256 -0 -0 -178 -223 -60 -0 -0 -40
-0 -0 -0 -0 -0 -0 -0 -0 -0 -0 -0 -0 -0 -0 -0 -0 -0 -0 -0 -0 -0 -0 -0 -0 -0 -0 -0 -0 -0 -31 -0 -0
-0 -0 -0 -0 -0 -0 -0 -0 -0 -0 -0 -0 -0 -0 -0 -0 -0 -0 -0 -0 -0 -0 -0 -0 -0 -0 -0 -0 -0 -0 -20 -12
-0 -0 -0 -0 -0 -0 -0 -0 -0 -0 -0 -0 -0 -0 -0 -0 -0 -0 -0 -0 -0 -0 -0 -0 -0 -0 -0 -0 -0 -0 -0 -10
-0 -0 -0 -0 -0 -0 -0 -0 -0 -0 -0 -0 -0 -0 -0 -0 -0 -0 -0 -0 -0 -0 -0 -0 -0 -0 -0 -0 -0 -0 -0 -1
-0 -0 -0 -0 -0 -0 -0 -0 -0 -0 -0 -0 -0 -0 -0 -0 -0 -0 -0 -0 -0 -0 -0 -0 -0 -0 -0 -0 -0 -0 -0 -0
-0 -0 -0 -0 -0 -0 -0 -0 -0 -0 -0 -0 -0 -0 -0 -0 -0 -0 -0 -0 -0 -0 -0 -0 -0 -0 -0 -0 -0 -0 -0 -0
-0 -0 -0 -0 -0 -0 -0 -0 -0 -0 -0 -0 -0 -0 -0 -0 -0 -0 -0 -0 -0 -0 -0 -0 -0 -0 -0 -0 -0 -0 -0 -0
-0 -0 -0 -0 -0 -0 -0 -0 -0 -0 -0 -0 -0 -0 -0 -0 -0 -0 -0 -0 -0 -0 -0 -0 -0 -0 -0 -0 -0 -0 -0 -0
-0 -0 -0 -0 -0 -0 -0 -0 -0 -0 -0 -0 -0 -0 -0 -0 -0 -0 -0 -0 -0 -0 -0 -0 -0 -0 -0 -0 -0 -0 -0 -0
-0 -0 -0 -0 -0 -0 -0 -0 -0 -0 -0 -0 -0 -0 -0 -0 -0 -0 -0 -0 -0 -0 -0 -0 -0 -0 -0 -0 -0 -0 -0 -0
Wind_Speed
32 33 35 38 40 42 41 36 31 27 23 21 18 19 23 22 19 18 19 19 20 19 22 25 25 24 24 24 23 22 22 21
32 34 34 35 36 43 42 40 37 32 24 22 22 21 21 21 21 19 18 19 20 20 21 22 23 25 27 29 27 26 28 27
nan nan nan 34 36 35 34 35 34 32 27 22 19 21 19 19 21 20 19 20 20 20 21 20 20 21 23 27 29 31 31 32
nan nan nan nan nan nan 28 27 28 27 25 24 22 21 21 21 19 20 21 20 19 21 22 22 22 25 27 28 32 30 29 30
nan nan nan nan nan nan nan 30 30 29 31 29 30 29 29 29 28 29 30 33 35 34 32 35 31 32 33 30 37 38 37 33
nan nan nan nan nan nan nan nan nan 36 37 37 36 35 35 35 35 35 37 38 40 40 40 33 38 42 41 38 39 44 45 43
nan nan nan nan nan nan nan nan nan nan 43 42 40 38 38 38 39 40 40 38 40 43 44 43 43 45 48 47 46 46 46 45
nan nan nan nan nan nan nan nan nan nan nan nan 38 37 38 41 40 42 42 41 40 41 42 44 46 46 46 47 47 47 46 46
nan nan nan nan nan nan nan nan nan nan nan nan nan nan nan 38 38 39 39 40 41 44 43 44 47 nan nan nan nan nan 47 47
nan nan nan nan nan nan nan nan nan nan nan nan nan nan nan nan nan nan nan 41 nan nan nan nan nan nan nan nan nan nan nan nan
nan nan nan nan nan nan nan nan nan nan nan nan nan nan nan nan nan nan nan nan nan nan nan nan nan nan nan nan nan nan nan nan
nan nan nan nan nan nan nan nan nan nan nan nan nan nan nan nan nan nan nan nan nan nan nan nan nan nan nan nan nan nan nan nan
nan nan nan nan nan nan nan nan nan nan nan nan nan nan nan nan nan nan nan nan nan nan nan nan nan nan nan nan nan nan nan nan
nan nan nan nan nan nan nan nan nan nan nan nan nan nan nan nan nan nan nan nan nan nan nan nan nan nan nan nan nan nan nan nan
nan nan nan nan nan nan nan nan nan nan nan nan nan nan nan nan nan nan nan nan nan nan nan nan nan nan nan nan nan nan nan nan
nan nan nan nan nan nan nan nan nan nan nan nan nan nan nan nan nan nan nan nan nan nan nan nan nan nan nan nan nan nan nan nan
nan nan nan nan nan nan nan nan nan nan nan nan nan nan nan nan nan nan nan nan nan nan nan nan nan nan nan nan nan nan nan nan
nan nan nan nan nan nan nan nan nan nan nan nan nan nan nan nan nan nan nan nan nan nan nan nan nan nan nan nan nan nan nan nan
nan nan nan nan nan nan nan nan nan nan nan nan nan nan nan nan nan nan nan nan nan nan nan nan nan nan nan nan nan nan nan nan
nan nan nan nan nan nan nan nan nan nan nan nan nan nan nan nan nan nan nan nan nan nan nan nan nan nan nan nan nan nan nan nan
Wind_Direction
244 244 244 245 247 251 257 259 264 265 266 270 274 284 290 291 287 292 295 296 298 296 297 300 303 304 301 298 293 288 289 282
248 248 247 250 252 248 253 257 255 258 263 269 270 270 268 269 274 281 285 290 294 293 292 291 295 300 304 302 300 300 289 289
nan nan nan 252 257 256 260 258 255 253 253 255 269 277 276 274 279 280 285 288 290 292 292 290 291 288 297 300 298 285 285 285
nan nan nan nan nan nan 260 258 262 259 256 255 262 271 276 276 278 272 277 274 278 282 287 287 291 293 290 297 291 289 287 288
nan nan nan nan nan nan nan 267 265 267 260 263 268 270 269 270 274 276 278 273 273 282 279 281 280 287 287 288 295 289 279 285
nan nan nan nan nan nan nan nan nan 267 267 265 271 274 271 274 275 272 274 277 276 281 279 276 265 275 279 282 281 286 289 292
nan nan nan nan nan nan nan nan nan nan 265 267 271 274 276 276 276 276 275 275 278 280 280 280 276 270 271 273 275 280 284 285
nan nan nan nan nan nan nan nan nan nan nan nan 262 269 272 274 277 278 279 281 279 276 277 279 280 278 274 271 273 274 275 278
nan nan nan nan nan nan nan nan nan nan nan nan nan nan nan 269 272 273 275 277 278 280 279 281 280 nan nan nan nan nan 273 273
nan nan nan nan nan nan nan nan nan nan nan nan nan nan nan nan nan nan nan 276 nan nan nan nan nan nan nan nan nan nan nan nan
nan nan nan nan nan nan nan nan nan nan nan nan nan nan nan nan nan nan nan nan nan nan nan nan nan nan nan nan nan nan nan nan
nan nan nan nan nan nan nan nan nan nan nan nan nan nan nan nan nan nan nan nan nan nan nan nan nan nan nan nan nan nan nan nan
nan nan nan nan nan nan nan nan nan nan nan nan nan nan nan nan nan nan nan nan nan nan nan nan nan nan nan nan nan nan nan nan
nan nan nan nan nan nan nan nan nan nan nan nan nan nan nan nan nan nan nan nan nan nan nan nan nan nan nan nan nan nan nan nan
nan nan nan nan nan nan nan nan nan nan nan nan nan nan nan nan nan nan nan nan nan nan nan nan nan nan nan nan nan nan nan nan
nan nan nan nan nan nan nan nan nan nan nan nan nan nan nan nan nan nan nan nan nan nan nan nan nan nan nan nan nan nan nan nan
nan nan nan nan nan nan nan nan nan nan nan nan nan nan nan nan nan nan nan nan nan nan nan nan nan nan nan nan nan nan nan nan
nan nan nan nan nan nan nan nan nan nan nan nan nan nan nan nan nan nan nan nan nan nan nan nan nan nan nan nan nan nan nan nan
nan nan nan nan nan nan nan nan nan nan nan nan nan nan nan nan nan nan nan nan nan nan nan nan nan nan nan nan nan nan nan nan
nan nan nan nan nan nan nan nan nan nan nan nan nan nan nan nan nan nan nan nan nan nan nan nan nan nan nan nan nan nan nan nan